Regional Weather Roundup
Issued by NWS Charleston, WV

Home | Current Version | Previous Version | Graphics & Text | Print | Product List | Glossary On
Versions: 1 2 3 4 5 6 7 8 9 10 11 12 13 14 15 16 17 18 19 20 21 22 23 24 25 26 27 28 29 30 31 32 33 34 35 36 37 38 39 40 41 42 43 44 45 46 47 48 49 50
000
ASUS41 KRLX 221010
RWRRLX
West Virginia Regional Weather Roundup
National Weather Service Charleston WV
500 AM EST MON DEC 22 2014

Note: "fair" indicates few or no clouds below 12,000 feet with no
significant weather and/or obstructions to visibility.

WVZ003-221100-
Northern Panhandle of West Virginia

CITY           SKY/WX    TMP DP  RH WIND       PRES   REMARKS
WHEELING       CLEAR     26  21  81 E7        30.09F
$$

WVZ009-221100-
Northwest West Virginia

CITY           SKY/WX    TMP DP  RH WIND       PRES   REMARKS
PARKERSBURG    CLOUDY    29  25  85 E3        30.10F
$$

WVZ006-221100-
Western West Virginia

CITY           SKY/WX    TMP DP  RH WIND       PRES   REMARKS
HUNTINGTON     CLOUDY    35  28  75 E3        30.04F
$$

WVZ015-221100-
West Central West Virginia

CITY           SKY/WX    TMP DP  RH WIND       PRES   REMARKS
CHARLESTON     MOCLDY    32  27  81 CALM      30.07F
$$

WVZ022-031-221100-
North Central West Virginia

CITY           SKY/WX    TMP DP  RH WIND       PRES   REMARKS
CLARKSBURG     MIX PCPN  24  22  91 CALM      30.09F
MORGANTOWN     CLEAR     32  22  66 E7        30.10F
$$

WVZ025-035-042-045-221100-
Southern West Virginia

CITY           SKY/WX    TMP DP  RH WIND       PRES   REMARKS
BECKLEY        CLOUDY    36  30  79 SE12      30.07F
LOGAN          CLOUDY    39  34  81 CALM      30.05F
BLUEFIELD      CLOUDY    36  32  85 SE10      30.07F
LEWISBURG      CLOUDY    36  29  77 E3        30.11F
$$

WVZ047-221100-
Northern Mountains of West Virginia

CITY           SKY/WX    TMP DP  RH WIND       PRES   REMARKS
ELKINS         CLEAR     20  18  92 CALM      30.10S
$$

WVZ052-221100-
Eastern Panhandle of West Virginia

CITY           SKY/WX    TMP DP  RH WIND       PRES   REMARKS
MARTINSBURG    CLOUDY    27  20  75 N3        30.26F
PETERSBURG     CLEAR     27  26  98 CALM      30.22S FOG
$$


USA.gov is the U.S. government's official web portal to all federal, state and local government web resources and services.